This demonstration page uses our WeatherBlox Daily Observations layout. Learn more.

41.55636, -103.73856

Hourly Observations for April 2, 2019

Temp ( °F °C ) Dew Point ( °F °C ) Humidity (%) Winds ( mph kmh ) Pressure ( in mb ) Visibility ( mi km ) Precip ( " mm )
12:53 am 00:53 Mostly Clear 30 -1.1 28 -2.2 92 92 NE 6 9 30.06 1018 10 16.09344 0 0
1:53 am 01:53 Clear 30 -1.1 27 -2.8 88 88 Calm 30.06 1018 10 16.09344 0 0
2:53 am 02:53 Partly Cloudy 29 -1.7 26 -3.3 89 89 Calm 30.06 1018 10 16.09344 0 0
3:53 am 03:53 Cloudy 31 -0.6 29 -1.7 92 92 Calm 30.03 1017 10 16.09344 0 0
4:53 am 04:53 Mostly Cloudy 31 -0.6 28 -2.2 89 89 N 3 6 30.03 1017 10 16.09344 0 0
5:53 am 05:53 Mostly Cloudy 31 -0.6 28 -2.2 89 89 NE 3 6 30.06 1018 10 16.09344 0 0
6:53 am 06:53 Mostly Cloudy 31 -0.6 29 -1.7 92 92 Calm 30.06 1018 9 14.484096 0 0
7:53 am 07:53 Mostly Cloudy 33 0.6 30 -1.1 89 89 E 5 7 30.09 1019 10 16.09344 0 0
8:53 am 08:53 Sunny 38 3.3 33 0.6 83 83 ESE 5 7 30.06 1018 10 16.09344 0 0
9:53 am 09:53 Sunny 44 6.7 34 1.1 68 68 SE 5 7 30.06 1018 10 16.09344 0 0
10:53 am 10:53 Sunny 48 8.9 34 1.1 58 58 SE 5 7 30.03 1017 10 16.09344 0 0
11:53 am 11:53 Sunny 51 10.6 34 1.1 52 52 VRB 6 9 30.03 1017 10 16.09344 0 0
12:53 pm 12:53 Partly Cloudy 52 11.1 32 0 47 47 W 3 6 30 1016 10 16.09344 0 0
1:53 pm 13:53 Cloudy 55 12.8 31 -0.6 40 40 Calm 29.97 1015 10 16.09344 0 0
2:53 pm 14:53 Cloudy 55 12.8 31 -0.6 40 40 undefined N/A 29.94 1014 10 16.09344 0 0
3:53 pm 15:53 Cloudy 53 11.7 33 0.6 47 47 S 13 20 29.94 1014 10 16.09344 0 0
4:53 pm 16:53 Cloudy 51 10.6 33 0.6 50 50 SW 10 17 29.94 1014 10 16.09344 0 0
5:53 pm 17:53 Cloudy 52 11.1 32 0 47 47 SW 10 17 29.94 1014 10 16.09344 0 0
6:53 pm 18:53 Cloudy 51 10.6 33 0.6 50 50 SSE 5 7 29.94 1014 10 16.09344 0 0
7:53 pm 19:53 Cloudy 48 8.9 38 3.3 68 68 SE 13 20 29.97 1015 10 16.09344 0 0
8:53 pm 20:53 Cloudy 46 7.8 39 3.9 77 77 ESE 10 17 30 1016 10 16.09344 0.001 0.001
9:53 pm 21:53 Cloudy with Light Rain 44 6.7 40 4.4 85 85 ESE 14 22 29.97 1015 10 16.09344 0.001 0.001
10:53 pm 22:53 Cloudy with Light Rain 43 6.1 41 5 93 93 ESE 13 20 29.97 1015 6 9.656064 0.03 0.762
11:53 pm 23:53 Cloudy 42 5.6 41 5 96 96 ESE 8 13 29.94 1014 10 16.09344 0.01 0.254

Powered by AerisWeather